Regional Weather Roundup
Issued by NWS Upton, NY

Current Version | Previous Version | Text Only | Print | Product List | Glossary On
Versions: 1 2 3 4 5 6 7 8 9 10 11 12 13 14 15 16 17 18 19 20 21 22 23 24 25 26 27
000
ASUS41 KOKX 241105
RWROKX

REGIONAL WEATHER ROUNDUP
NATIONAL WEATHER SERVICE NEW YORK NY
700 AM EDT FRI OCT 24 2014

NOTE: "FAIR" INDICATES FEW OR NO CLOUDS BELOW 12,000 FEET WITH NO
SIGNIFICANT WEATHER AND/OR OBSTRUCTIONS TO VISIBILITY.

NYZ071-072-176-178-NJZ106-104-241200-
NEW YORK CITY METRO AREA


CITY           SKY/WX    TMP DP  RH WIND       PRES   REMARKS
CENTRAL PARK   MOCLDY    51  42  71 VRB6      29.83R
LAGUARDIA APRT MOCLDY    52  43  71 NW14      29.80R
KENNEDY INTL   MOCLDY    52  42  69 NW12      29.80R
NEWARK/LIBERTY MOCLDY    50  43  77 NW7       29.81R
BRNX BOT. GARD   N/A     50  43  76 W3        29.81S
TETERBORO      PTCLDY    50  42  74 NW7       29.80R
$$

NYZ177-179-078>081-241200-
LONG ISLAND NEW YORK

CITY           SKY/WX    TMP DP  RH WIND       PRES   REMARKS
FARMINGDALE    MOCLDY    51  44  77 NW7       29.78S
ISLIP          LGT RAIN  51  45  79 NW13      29.76R
SHIRLEY        CLOUDY    51  45  79 NW13      29.77R
WESTHAMPTON    CLOUDY    52  46  80 NW10      29.76R
MONTAUK POINT    N/A     54  47  77 NW10G21   29.73R
$$

NYZ052-065-067-241200-
HUDSON VALLEY

CITY           SKY/WX    TMP DP  RH WIND       PRES   REMARKS
WHITE PLAINS   DRIZZLE   49  44  83 NW8       29.78R
NEWBURGH       CLOUDY    48  45  87 NW6       29.81R
MONTGOMERY     CLOUDY    50  42  74 NW7       29.79R
POUGHKEEPSIE   CLOUDY    49  44  83 CALM      29.80S
ALBANY         LGT RAIN  46  44  93 NE5       29.84R FOG
$$

NJZ001-105-106-008-010-013-015-019>022-104-241200-
NEW JERSEY

CITY           SKY/WX    TMP DP  RH WIND       PRES   REMARKS
NEWARK/LIBERTY MOCLDY    50  43  77 NW7       29.81R
TETERBORO      PTCLDY    50  42  74 NW7       29.80R
CALDWELL       CLOUDY    50  42  74 NW10      29.82R
MORRISTOWN     CLOUDY    52  45  76 NW9       29.82R
SOMERVILLE     CLOUDY    53  44  71 NW6       29.80F
SUSSEX         CLOUDY    53  42  66 MISG      29.83R
ANDOVER          N/A     50  42  74 N8        29.83R
TRENTON        CLOUDY    53  44  71 NW8       29.82S
MILLVILLE      CLOUDY    53  46  77 NW10      29.85R
ATLANTIC CITY  CLEAR     47  44  90 W7        29.83S
WRIGHTSTOWN    PTCLDY    51  45  79 NW8       29.80S
TOMS RIVER     PTCLDY    50  45  81 NW5       29.81S
BELMAR         PTCLDY    48  41  76 NW7       29.80F
$$

PAZ047>061-062-071-241200-
EASTERN PENNSYLVANIA

CITY           SKY/WX    TMP DP  RH WIND       PRES   REMARKS
PHILADELPHIA   MOCLDY    57  44  62 NW15      29.86R
ALLENTOWN      CLOUDY    55  42  61 N17G24    29.85R
SCRANTON       CLOUDY    51  41  68 N9        29.89S
$$

CTZ002-004>006-009-010-012-RIZ004-006-007-MAZ004-011-015-241200-
SOUTHERN NEW ENGLAND
 IN CT

CITY           SKY/WX    TMP DP  RH WIND       PRES   REMARKS
BRADLEY INTL   LGT RAIN  48  43  82 NW10      29.74R
HARTFORD       LGT RAIN  49  43  80 NW7       29.75R
DANBURY        LGT RAIN  48  42  80 VRB5      29.80R
WTRBRY/OXFORD  LGT RAIN  46  39  76 N8        29.76R
BRIDGEPORT     LGT RAIN  50  45  83 NW10      29.77S
MERIDEN        LGT RAIN  50  42  74 N9        29.75R
NEW HAVEN      CLOUDY    52  44  74 N7G17     29.76R
CHESTER        PTSUNNY   48  43  81 NW10G17   29.74S
GROTON         CLOUDY    50  46  86 NW8       29.72R
WILLIMANTIC    LGT RAIN  50  45  83 NW10      29.73R

 IN RI

CITY           SKY/WX    TMP DP  RH WIND       PRES   REMARKS
PROVIDENCE     LGT RAIN  51  48  89 NW8       29.70R
BLOCK ISLAND   CLOUDY    52  45  76 NW13G21   29.69R
WESTERLY       CLOUDY    51  46  83 VRB7      29.71R

 IN MA

CITY           SKY/WX    TMP DP  RH WIND       PRES   REMARKS
BOSTON         CLOUDY    48  47  96 NW12      29.68R
WORCESTER      LGT RAIN  46  44  93 NW14      29.70S
WESTFIELD      LGT RAIN  47  43  86 N12       29.75S FOG
PROVINCETOWN   CLOUDY    50  -2  11 N22G28    29.63S
NANTUCKET      CLOUDY    52  50  93 N24G32    29.59R
$$

ANZ330-335-338-340-345-350-353-355-241200-
COASTAL MARINE OBSERVATIONS


STATION/POSITION TIME  SKY/WX   TEMP    WIND        PRES    VSBY  WAVE
                                AIR SEA DIR/SP/G                  HT/PER
                 (UTC)          (F)     (DEG/KT/KT) (MB)    (MI)  (FT/S)
NY HARB ENTRANCE NOT AVBL
4S FIRE IS       1100               63                N/A           3/ 9
20S FIRE ISLAND  1100            55 63  330/ 21/ 25 1007.4          5/ 5
23SW MTP         1100                                 N/A           5/ 5
HUDSON CANYON    1100            57 66  330/ 21/ 27 1006.6
EXECUTION ROCKS  1100            52 62  300/ 10/ 14   N/A
WESTERN LI SOUND 1100            52     300/  8/ 12   N/A           0
CENTRAL LI SOUND 1000            53 63  320/ 16/ 19   N/A           2/ 3
EASTERN LI SOUND 1000            54 63  320/ 12/ 16   N/A
ROBBINS REEF     1100            52     310/ 12/ 15 1008.0
$$


>>>>>>>>>>>>>>>>>>>>>>>>>>>> KEY <<<<<<<<<<<<<<<<<<<<<<<<<<<
>                                                          <
>     SKY/WX - SKY CONDITION/PRESENT WEATHER               <
>     TMP    - TEMPERATURE IN FAHRENHEIT                   <
>     DP     - DEWPOINT IN FAHRENHEIT                      <
>     RH     - RELATIVE HUMIDITY IN PERCENT                <
>     WIND   - DIRECTION AND SPEED IN MPH                  <
>     PRES   - MEAN SEA LEVEL PRESSURE IN INCHES OF HG     <
>     WCI    - WIND CHILL INDEX                            <
>     VSB    - VISIBILITY IN MILES                         <
>     HX     - HEAT INDEX                                  <
>     TC     - TEMPERATURE IN CELSIUS                      <
>     VRB    - VARIABLE WIND DIRECTION                     <
>                                                          <
>>>>>>>>>>>>>>>>>>>>>>>>>>>> KEY <<<<<<<<<<<<<<<<<<<<<<<<<<<





USA.gov is the U.S. government's official web portal to all federal, state and local government web resources and services.